Location: Asheville, NC
(35.6000°N, 82.5500°W)
Time: 19:51:16
(UTC-04:00)

XW-2D - Pass Details

Date: 14 March 2018
Orbit: 509 x 530 km, 97.5° (Epoch: 19 June)

Event Time Altitude Azimuth Distance (km) Brightness Sun altitude
Rises 07:09:40 0° 19° (NNE) 2,662 ? -7.5°
Reaches altitude 10° 07:11:50 10° 26° (NNE) 1,772 ? -7.0°
Maximum altitude 07:15:31 44° 99° (E) 736 ? -6.3°
Drops below altitude 10° 07:19:10 10° 172° (S) 1,767 ? -5.5°
Sets 07:21:20 0° 179° (S) 2,653 ? -5.1°
